STARLINK-35367, 65883

Orbit data source: Space-Track

STARLINK-35367, 65883 is a payload satellite owned by SpaceX/Seattle (US) in LEO that was launched on Tue, 07 Oct 2025 UTC via an FALCON 9 launch vehicle from the Air Force Eastern Test Range (AFETR). Payload-class satellites include a variety of spacecraft equipped with specific instruments for various scientific and technological missions. These include communications satellites like Starlink; space stations such as the ISS; scientific satellites like the Hubble; Earth observation satellites from companies like Planet Labs, Umbra, and HawkEye 360; GPS; miniature CubeSats for education and research; and military/defense satellites.

Loading next visibility...
Identifier
65883, 2025-224B
Orbit
LEO
Country
Flag of USUS
Related business
Manufacturer
SpaceX/Seattle
Mission
Operational spacecraft
Bus & Motor
STARLINK V2MO, Unknown motor
Mass
575 kg wet, ~530 kg dry
Launch date (UTC)
2025-10-07 (2 months ago)
Launch vehicle
FALCON 9
Launch site
Air Force Eastern Test Range (AFETR)
Object type
Payload
Rocket body
Debris
Shape & HBR
Unknown shape, 17.7 m
Radar Cross Section
RCS unknown

Expand to show TLE details & history
Last TLE update: 18 hours ago

TLE from 18 hours ago
0 STARLINK-35367
1 65883U 25224B   25340.66593793  .00057737  00000-0  19443-2 0  9999
2 65883  53.1609  83.3161 0001140  92.1739 267.9393 15.30234982 10585
Epoch: 2025-12-06T15:58Z
TLE epoch observation values (Epoch: 2025-12-06T15:58:57.037Z)
Latitude
0.00005°
Longitude
127.88808°
Altitude
476.039 km
Speed
7.629 km/s
True Right ascension
05h 33m 15s
True Declination
0° 00' 00"
Sunlit
Object was in full shadow at epoch
Visualization orbit readout
Latitude
Unknown
Longitude
Unknown
Altitude
Unknown
Speed
Unknown
Apparent Right ascension
Unknown
Apparent Declination
Unknown
Sunlit
N/A
Visualization observer readout
Local Sidereal Time
07:41:12
Azimuth
Unknown
Elevation
Unknown
Doppler factor
Unknown
Orbital elements
Apogee altitude
476.148 km
Perigee altitude
474.586 km
Semi-major axis
6,853.504 km
Eccentricity
0.00011
Inclination
53.1609°
RAAN
83.3161°
Arg. of periapsis
92.1739°
True anomaly
267.92625°
Mean anomaly
267.9393°
Eccentric anomaly
267.93277°
Mean motion
3.82538 °/min
Orbital period
94.11 mins
BSTAR
0.0019443
Loading maneuver chart data...
Computing Atmospheric mass density...
Loading historical data...
Loading historical data...
Loading historical data...
Loading historical data...
Loading historical data...
Loading historical data...
Loading historical data...

Documentation

Showing up to 5 results
|